Content
SEND FEEDBACK

Daily
Averages
Monthly
Summary
Canada

VANCOUVER - CITY HALL, BRITISH COLUMBIA


Home > North America > Canada > British Columbia
Elevation: 283 feet     Latitude: 49 17N     Longitude: 123 07W

WEATHER
 
SELECT A DAY
Number of Records: 170,124;   Date Range: 4/23/95 - 8/31/14
 
SHARE

PRINT THIS DATA

[ ← Previous Day ]
WEATHER ALMANAC - JANUARY 10, 2013
[ Next Day → ]
[ °C ]   °F
Weather ElementAverageHighLow
Temperature35.2 °F39.6 °F (2:00 pm)29.8 °F (10:00 pm)
Dewpoint29.2 °F34.3 °F (1:00 am)19.6 °F (6:00 pm)
Humidity78.8 %96 % (4:00 am)49 % (4:00 pm)
Barometer30.05 in30.14 in (11:00 pm)29.91 in (1:00 am)
Wind Speed0.7 mph2.3 mph (12:00 pm)
Weather ElementAverage
Wind DirectionENE (74.1 °)

Weather ElementTotal
Precipitation0.05 in
Heating Degree Days30.3 (Base 65)
Averaged from 24 records on January 10, 2013
WEATHER CONDITIONS BREAKOUT
WIND DIRECTION BREAKOUT
WEATHER BY HOUR - JANUARY 10, 2013
[ °C ]   °F
Local TimeTemperatureDewpointHumidityBarometerVisibilityWind DirectionWind SpeedGust SpeedPrecipitationEventsConditions
1:00 AM36.5 °F34.3 °F92 %29.91 inNE (50°)1.2 mph0.02 in
2:00 AM35.6 °F34.0 °F94 %29.92 inCalm0.03 in
3:00 AM34.7 °F33.4 °F95 %29.94 inCalm
4:00 AM35.0 °F34.0 °F94 %29.95 inNorth1.2 mph
4:00 AM35.1 °F34.0 °F96 %29.95 inNorth (360°)1.2 mph
7:00 AM34.3 °F33.3 °F96 %30.00 inNorth (350°)1.2 mph
8:00 AM35.1 °F33.8 °F95 %30.03 inCalm
9:00 AM35.1 °F33.8 °F95 %30.06 inCalm
10:00 AM36.0 °F33.0 °F85 %30.07 inCalm
10:00 AM36.1 °F33.1 °F89 %30.07 inCalm
11:00 AM38.7 °F31.1 °F74 %30.07 inCalm
12:00 PM38.1 °F30.0 °F73 %30.06 inSSW (210°)2.3 mph
1:00 PM39.2 °F28.6 °F66 %30.05 inSW (220°)1.2 mph
2:00 PM39.6 °F28.0 °F63 %30.06 inCalm
3:00 PM39.2 °F25.9 °F59 %30.07 inCalm
4:00 PM38.0 °F26.0 °F49 %30.08 inCalm
4:00 PM37.6 °F25.5 °F62 %30.08 inCalm
5:00 PM34.9 °F28.4 °F77 %30.08 inCalm
6:00 PM34.3 °F19.6 °F55 %30.09 inNE (50°)2.3 mph
7:00 PM31.8 °F23.5 °F71 %30.10 inCalm
9:00 PM30.4 °F23.5 °F76 %30.12 inNorth (10°)2.3 mph
10:00 PM30.0 °F24.0 °F72 %30.13 inNorth (10°)1.2 mph
10:00 PM29.8 °F24.4 °F80 %30.13 inNorth (10°)1.2 mph
11:00 PM30.0 °F25.0 °F82 %30.14 inNorth (360°)2.3 mph
Hourly data recorded from CWWA, located miles away from Vancouver - City Hall, British Columbia







STORIES FROM OUR PARTNERS